Retour au catalogue

CZ-6A DEB

ActifSSO
NORAD 55543·DEBRIS·🇨🇳 China

Lancé Nov 11, 2022 depuis Taiyuan Satellite Launch Center

Loading…

Prochains Passages (prochaines 24 heures)

TLE

FraisSource: Space-Track

Époque: Sep 14, 2026, 01:08 UTC

1 55543U 22151YR  26257.04785722  .00004027  00000-0  76831-3 0  9991
2 55543  98.5128 299.6919 0127115  34.0922 326.8360 14.59487483197254

Suivez CZ-6A DEB en temps réel avec AllMySat

Download on the App Store